Location: Sihaung
(22.8641°N, 94.0549°E)
Time: 12:59:27
(UTC+00:00)

X-37B - Pass Details

Date: 03 March 2021
Orbit: 380 x 394 km, 45.0° (Epoch: 07 April)

Event Time Altitude Azimuth Distance (km) Brightness Sun altitude
Exits shadow 22:34:18 11° 5° (N) 1,359 3.4 -21.2°
Maximum altitude 22:35:45 14° 33° (NNE) 1,214 3.5 -20.9°
Drops below altitude 10° 22:37:28 10° 66° (ENE) 1,412 4.4 -20.5°
Sets 22:40:18 0° 94° (E) 2,260 6.1 -19.8°
